K0QMS Weather Reports


time (UTC)temp
C
wind
direction
speed
KPH
gust
KPH
rain 1hr
cm
rain 24hr
cm
rain mn
cm
humidity
%
barometer
mb
20260504020207 -17 0 0.0 0.0 0.00 0.00 0.00 100
20260504015206 -17 0 0.0 0.0 0.00 0.00 0.00 100
20260504012305 -17 0 0.0 0.0 0.00 0.00 0.00 100
20260504011306 -17 0 0.0 0.0 0.00 0.00 0.00 100
20260504010306 -17 0 0.0 0.0 0.00 0.00 0.00 100
20260504004307 28 247 8.0 8.0 0.00 0.00 0.00 13
20260504002305 -17 0 0.0 0.0 0.00 0.00 0.00 100
20260504001315 -17 0 0.0 0.0 0.00 0.00 0.00 100
20260504000321 28 292 4.8 4.8 0.00 0.00 0.00 13
20260503235320 -17 0 0.0 0.0 0.00 0.00 0.00 100
20260503235221 -17 0 0.0 0.0 0.00 0.00 0.00 100
20260503234220 -17 0 0.0 0.0 0.00 0.00 0.00 100
20260503233221 28 225 6.4 6.4 0.00 0.00 0.00 12
20260503232219 -17 0 0.0 0.0 0.00 0.00 0.00 100
20260503230321 -17 0 0.0 0.0 0.00 0.00 0.00 100
20260503225321 -17 0 0.0 0.0 0.00 0.00 0.00 100
20260503224319 -17 0 0.0 0.0 0.00 0.00 0.00 100
20260503223320 -17 0 0.0 0.0 0.00 0.00 0.00 100
20260503222419 -17 0 0.0 0.0 0.00 0.00 0.00 100
20260503221421 -17 0 0.0 0.0 0.00 0.00 0.00 100
20260503220421 -17 0 0.0 0.0 0.00 0.00 0.00 100
20260503214519 -17 0 0.0 0.0 0.00 0.00 0.00 100
20260503213521 31 202 14.5 14.5 0.00 0.00 0.00 15
20260503211520 -17 0 0.0 0.0 0.00 0.00 0.00 100
20260503211420 -17 0 0.0 0.0 0.00 0.00 0.00 100
20260503210517 30 225 14.5 14.5 0.00 0.00 0.00 15
20260503205521 -17 0 0.0 0.0 0.00 0.00 0.00 100
20260503204518 -17 0 0.0 0.0 0.00 0.00 0.00 100
20260503201717 -17 0 0.0 0.0 0.00 0.00 0.00 100
20260503195731 -17 0 0.0 0.0 0.00 0.00 0.00 100
20260503194730 -17 0 0.0 0.0 0.00 0.00 0.00 100
20260503193732 -17 0 0.0 0.0 0.00 0.00 0.00 100
20260503192733 -17 0 0.0 0.0 0.00 0.00 0.00 100
20260503191830 30 22 0.0 0.0 0.00 0.00 0.00 27
20260503190830 -17 0 0.0 0.0 0.00 0.00 0.00 100
20260503184930 28 90 0.0 0.0 0.00 0.00 0.00 29
20260503183931 27 360 0.0 0.0 0.00 0.00 0.00 31
20260503183029 -17 0 0.0 0.0 0.00 0.00 0.00 100
20260503182031 -17 0 0.0 0.0 0.00 0.00 0.00 100
20260503181031 -17 0 0.0 0.0 0.00 0.00 0.00 100
20260503180130 -17 0 0.0 0.0 0.00 0.00 0.00 100
20260503175132 -17 0 0.0 0.0 0.00 0.00 0.00 100
20260503173232 -17 0 0.0 0.0 0.00 0.00 0.00 100
20260503172232 -17 0 0.0 0.0 0.00 0.00 0.00 100
20260503171329 -17 0 0.0 0.0 0.00 0.00 0.00 100
20260503150819 -17 0 0.0 0.0 0.00 0.00 0.00 100
20260503130919 -17 0 0.0 0.0 0.00 0.00 0.00 100
20260503110119 -17 0 0.0 0.0 0.00 0.00 0.00 100
20260503100220 -17 0 0.0 0.0 0.00 0.00 0.00 100
20260503090434 -17 0 0.0 0.0 0.00 0.00 0.00 100
20260503081517 -17 0 0.0 0.0 0.00 0.00 0.00 100
20260503080527 -17 0 0.0 0.0 0.00 0.00 0.00 100
20260503072823 21 270 0.0 0.0 0.00 0.00 0.00 38
20260503071825 -17 0 0.0 0.0 0.00 0.00 0.00 100
20260503070825 -17 0 0.0 0.0 0.00 0.00 0.00 100
20260503054216 22 315 4.8 4.8 0.00 0.00 0.00 35
20260503053217 23 315 6.4 6.4 0.00 0.00 0.00 34
20260503052219 23 292 3.2 4.8 0.00 0.00 0.00 34
20260503051218 23 263 1.6 4.8 0.00 0.00 0.00 34
20260503044317 24 135 0.0 0.0 0.00 0.00 0.00 33
20260503043316 24 124 0.0 0.0 0.00 0.00 0.00 32
20260503042319 24 225 0.0 0.0 0.00 0.00 0.00 32
20260503041416 24 34 0.0 1.6 0.00 0.00 0.00 31
20260503040420 24 202 0.0 0.0 0.00 0.00 0.00 30
20260503034518 25 180 0.0 0.0 0.00 0.00 0.00 30
20260503033519 25 180 4.8 4.8 0.00 0.00 0.00 30
20260503031617 -17 0 0.0 0.0 0.00 0.00 0.00 100
20260503030618 -17 0 0.0 0.0 0.00 0.00 0.00 100
20260503025618 -17 0 0.0 0.0 0.00 0.00 0.00 100
20260503024717 -17 0 0.0 0.0 0.00 0.00 0.00 100
20260503022817 -17 0 0.0 0.0 0.00 0.00 0.00 100
20260503021817 -17 0 0.0 0.0 0.00 0.00 0.00 100